Hourly Weather Natalinka

Today, 11 August, Tuesday

Time Temperature Precipitation Wind Pressure Humidity
00:00 +18°C° 0 mm 1 mps 745 mmHg 72%
01:00 +18°C° 0 mm 1 mps 745 mmHg 73%
02:00 +18°C° 0 mm 1 mps 745 mmHg 74%
03:00 +16°C° 0 mm 2 mps 745 mmHg 75%
04:00 +16°C° 0 mm 2 mps 745 mmHg 77%
05:00 +16°C° 0 mm 2 mps 744 mmHg 79%
06:00 +16°C° 0 mm 2 mps 744 mmHg 81%
07:00 +18°C° 0 mm 2 mps 744 mmHg 78%
08:00 +19°C° 0 mm 2 mps 744 mmHg 75%
09:00 +21°C° 0 mm 3 mps 744 mmHg 72%
10:00 +22°C° 1.2 mm 3 mps 744 mmHg 69%
11:00 +24°C° 1.2 mm 3 mps 744 mmHg 67%
12:00 +25°C° 1.2 mm 3 mps 744 mmHg 64%
13:00 +25°C° 1.5 mm 3 mps 744 mmHg 65%
14:00 +23°C° 1.5 mm 4 mps 743 mmHg 66%
15:00 +23°C° 1.5 mm 4 mps 743 mmHg 67%
16:00 +24°C° 0.8 mm 3 mps 743 mmHg 69%
17:00 +22°C° 0.8 mm 3 mps 743 mmHg 72%
18:00 +21°C° 0.8 mm 3 mps 743 mmHg 74%
19:00 +20°C° 0.1 mm 3 mps 743 mmHg 77%
20:00 +18°C° 0.1 mm 3 mps 743 mmHg 80%
21:00 +15°C° 0.1 mm 4 mps 743 mmHg 83%
22:00 +14°C° 0 mm 3 mps 744 mmHg 84%
23:00 +14°C° 0 mm 3 mps 744 mmHg 85%

Tomorrow, 12 August, Wednesday

Time Temperature Precipitation Wind Pressure Humidity
00:00 +13°C° 0 mm 3 mps 744 mmHg 86%
01:00 +12°C° 0 mm 3 mps 744 mmHg 89%
02:00 +12°C° 0 mm 3 mps 744 mmHg 91%
03:00 +11°C° 0 mm 3 mps 744 mmHg 94%
04:00 +11°C° 0 mm 3 mps 744 mmHg 94%
05:00 +11°C° 0 mm 3 mps 744 mmHg 94%
06:00 +11°C° 0 mm 3 mps 744 mmHg 94%
07:00 +12°C° 0 mm 3 mps 744 mmHg 90%
08:00 +13°C° 0 mm 4 mps 744 mmHg 85%
09:00 +14°C° 0 mm 4 mps 744 mmHg 81%
10:00 +15°C° 0.1 mm 4 mps 744 mmHg 77%
11:00 +17°C° 0.1 mm 4 mps 744 mmHg 73%
12:00 +18°C° 0.1 mm 4 mps 744 mmHg 69%
13:00 +18°C° 0.1 mm 4 mps 743 mmHg 68%
14:00 +18°C° 0.1 mm 4 mps 743 mmHg 67%
15:00 +19°C° 0.1 mm 4 mps 743 mmHg 66%
16:00 +18°C° 0.3 mm 4 mps 743 mmHg 69%
17:00 +18°C° 0.3 mm 4 mps 743 mmHg 72%
18:00 +18°C° 0.3 mm 4 mps 743 mmHg 75%
19:00 +15°C° 0.1 mm 4 mps 743 mmHg 80%
20:00 +14°C° 0.1 mm 4 mps 743 mmHg 86%
21:00 +13°C° 0.1 mm 4 mps 743 mmHg 91%
22:00 +13°C° 0 mm 4 mps 743 mmHg 91%
23:00 +13°C° 0 mm 4 mps 743 mmHg 91%

Day after tomorrow, 13 August, Thursday

Time Temperature Precipitation Wind Pressure Humidity
00:00 +13°C° 0 mm 5 mps 743 mmHg 91%
01:00 +13°C° 0 mm 5 mps 743 mmHg 91%
02:00 +13°C° 0 mm 5 mps 743 mmHg 91%
03:00 +13°C° 0 mm 5 mps 743 mmHg 91%
04:00 +13°C° 0.1 mm 5 mps 743 mmHg 91%
05:00 +13°C° 0.1 mm 5 mps 742 mmHg 91%
06:00 +13°C° 0.1 mm 5 mps 742 mmHg 91%
07:00 +13°C° 0.1 mm 6 mps 742 mmHg 90%
08:00 +13°C° 0.1 mm 6 mps 742 mmHg 89%
09:00 +14°C° 0.1 mm 6 mps 742 mmHg 88%
10:00 +14°C° 0.2 mm 6 mps 743 mmHg 87%
11:00 +14°C° 0.2 mm 6 mps 743 mmHg 86%
12:00 +14°C° 0.2 mm 6 mps 743 mmHg 85%
13:00 +14°C° 0.1 mm 6 mps 743 mmHg 83%
14:00 +14°C° 0.1 mm 6 mps 743 mmHg 81%
15:00 +14°C° 0.1 mm 6 mps 743 mmHg 79%
16:00 +15°C° 0 mm 6 mps 743 mmHg 77%
17:00 +15°C° 0 mm 5 mps 743 mmHg 76%
18:00 +15°C° 0 mm 5 mps 743 mmHg 75%
19:00 +14°C° 0.1 mm 5 mps 744 mmHg 79%
20:00 +13°C° 0.1 mm 4 mps 744 mmHg 82%
21:00 +12°C° 0.1 mm 4 mps 744 mmHg 86%
22:00 +12°C° 0 mm 4 mps 744 mmHg 86%
23:00 +11°C° 0 mm 3 mps 744 mmHg 86%

14 August, Friday

Time Temperature Precipitation Wind Pressure Humidity
00:00 +11°C° 0 mm 3 mps 744 mmHg 86%
01:00 +10°C° 0 mm 3 mps 744 mmHg 86%
02:00 +10°C° 0 mm 4 mps 744 mmHg 86%
03:00 +8°C° 0 mm 4 mps 744 mmHg 87%
04:00 +8°C° 0 mm 4 mps 744 mmHg 87%
05:00 +8°C° 0 mm 4 mps 744 mmHg 87%
06:00 +8°C° 0 mm 5 mps 744 mmHg 88%
07:00 +9°C° 0 mm 5 mps 744 mmHg 82%
08:00 +12°C° 0 mm 5 mps 744 mmHg 76%
09:00 +13°C° 0 mm 6 mps 745 mmHg 70%
10:00 +14°C° 0 mm 6 mps 745 mmHg 65%
11:00 +15°C° 0 mm 6 mps 745 mmHg 60%
12:00 +16°C° 0 mm 6 mps 745 mmHg 55%
13:00 +16°C° 0 mm 6 mps 745 mmHg 56%
14:00 +16°C° 0 mm 6 mps 745 mmHg 56%
15:00 +16°C° 0 mm 5 mps 745 mmHg 57%
16:00 +16°C° 0.1 mm 5 mps 745 mmHg 60%
17:00 +17°C° 0.1 mm 4 mps 745 mmHg 62%
18:00 +15°C° 0.1 mm 4 mps 745 mmHg 65%
19:00 +14°C° 0 mm 4 mps 745 mmHg 70%
20:00 +13°C° 0 mm 3 mps 746 mmHg 75%
21:00 +11°C° 0 mm 3 mps 746 mmHg 80%
22:00 +11°C° 0 mm 3 mps 746 mmHg 81%
23:00 +10°C° 0 mm 3 mps 746 mmHg 82%

15 August, Saturday

Time Temperature Precipitation Wind Pressure Humidity
00:00 +10°C° 0 mm 3 mps 746 mmHg 83%
01:00 +9°C° 0 mm 3 mps 746 mmHg 84%
02:00 +9°C° 0 mm 3 mps 746 mmHg 86%
03:00 +9°C° 0 mm 3 mps 747 mmHg 87%
04:00 +9°C° 0 mm 3 mps 747 mmHg 87%
05:00 +9°C° 0 mm 3 mps 747 mmHg 88%
06:00 +9°C° 0 mm 3 mps 747 mmHg 88%
07:00 +10°C° 0 mm 4 mps 747 mmHg 82%
08:00 +12°C° 0 mm 4 mps 747 mmHg 76%
09:00 +14°C° 0 mm 4 mps 747 mmHg 70%
10:00 +15°C° 0.1 mm 4 mps 747 mmHg 67%
11:00 +17°C° 0.1 mm 4 mps 747 mmHg 64%
12:00 +18°C° 0.1 mm 4 mps 747 mmHg 61%
13:00 +18°C° 0.2 mm 4 mps 746 mmHg 61%
14:00 +19°C° 0.2 mm 4 mps 746 mmHg 60%
15:00 +19°C° 0.2 mm 4 mps 746 mmHg 59%
16:00 +19°C° 0.1 mm 4 mps 746 mmHg 62%
17:00 +18°C° 0.1 mm 4 mps 746 mmHg 65%
18:00 +18°C° 0.1 mm 3 mps 746 mmHg 67%
19:00 +17°C° 0 mm 3 mps 746 mmHg 72%
20:00 +14°C° 0 mm 3 mps 746 mmHg 78%
21:00 +14°C° 0 mm 2 mps 746 mmHg 83%
22:00 +13°C° 0 mm 2 mps 746 mmHg 85%
23:00 +13°C° 0 mm 2 mps 746 mmHg 88%

16 August, Sunday

Time Temperature Precipitation Wind Pressure Humidity
00:00 +12°C° 0 mm 2 mps 747 mmHg 90%
01:00 +12°C° 0 mm 2 mps 747 mmHg 90%
02:00 +10°C° 0 mm 2 mps 747 mmHg 90%
03:00 +10°C° 0 mm 2 mps 747 mmHg 90%
04:00 +10°C° 0 mm 2 mps 747 mmHg 89%
05:00 +10°C° 0 mm 2 mps 747 mmHg 88%
06:00 +10°C° 0 mm 3 mps 747 mmHg 88%
07:00 +11°C° 0 mm 3 mps 747 mmHg 81%
08:00 +13°C° 0 mm 3 mps 747 mmHg 74%
09:00 +15°C° 0 mm 4 mps 747 mmHg 67%
10:00 +17°C° 0 mm 4 mps 747 mmHg 62%
11:00 +18°C° 0 mm 4 mps 747 mmHg 57%
12:00 +19°C° 0 mm 4 mps 747 mmHg 52%
13:00 +19°C° 0 mm 4 mps 747 mmHg 51%
14:00 +20°C° 0 mm 4 mps 747 mmHg 49%
15:00 +20°C° 0 mm 4 mps 746 mmHg 48%
16:00 +20°C° 0 mm 3 mps 746 mmHg 52%
17:00 +19°C° 0 mm 3 mps 746 mmHg 56%
18:00 +19°C° 0 mm 3 mps 746 mmHg 59%
19:00 +17°C° 0 mm 3 mps 746 mmHg 62%
20:00 +14°C° 0 mm 3 mps 747 mmHg 64%
21:00 +13°C° 0 mm 3 mps 747 mmHg 67%
22:00 +13°C° 0 mm 2 mps 747 mmHg 69%
23:00 +13°C° 0 mm 2 mps 747 mmHg 70%
Show more